This demonstration page uses our WeatherBlox Daily Observations layout. Learn more.

41.55636, -103.73856

Hourly Observations for May 20, 2015

Temp ( °F °C ) Dew Point ( °F °C ) Humidity (%) Winds ( mph kmh ) Pressure ( in mb ) Visibility ( mi km ) Precip ( " mm )
12:37 am 00:37 Cloudy with Light Snow 34 1 32 0 93 93 E 5 7 30.33 1027 2.5 4.02336 0 0
12:50 am 00:50 Cloudy with Light Snow 34 1 32 0 93 93 E 5 7 30.33 1027 3 4.828032 0 0
12:53 am 00:53 Cloudy with Light Snow 34 1 32 0 93 93 E 5 7 30.33 1027 3 4.828032 0.01 0.254
1:22 am 01:22 Cloudy with Light Snow 34 1 34 1 100 100 Calm 30.33 1027 2.5 4.02336 0 0
1:31 am 01:31 Cloudy with Light Snow 34 1 32 0 93 93 E 3 6 30.33 1027 2 3.218688 0.001 0.001
1:45 am 01:45 Cloudy with Light Snow 34 1 32 0 93 93 ENE 3 6 30.33 1027 1.75 2.816352 0.01 0.254
1:53 am 01:53 Cloudy with Light Snow 34 1 32 0 93 93 ENE 3 6 30.33 1027 2 3.218688 0.01 0.254
2:12 am 02:12 Cloudy with Light Snow 34 1 32 0 93 93 Calm 30.33 1027 2.5 4.02336 0 0
2:28 am 02:28 Cloudy with Light Snow 34 1 32 0 93 93 N 3 6 30.33 1027 2.5 4.02336 0 0
2:46 am 02:46 Cloudy with Light Snow 34 1 32 0 93 93 Calm 30.33 1027 2 3.218688 0 0
2:53 am 02:53 Cloudy with Light Snow 34 1 32 0 93 93 Calm 30.33 1027 2 3.218688 0.02 0.508
3:11 am 03:11 Cloudy with Light Snow 34 1 32 0 93 93 Calm 30.33 1027 3 4.828032 0.001 0.001
3:26 am 03:26 Cloudy with Light Snow 34 1 32 0 93 93 N 3 6 30.3 1026 5 8.04672 0.001 0.001
3:53 am 03:53 Cloudy 34 1 32 0 93 93 Calm 30.33 1027 9 14.484096 0.01 0.254
4:31 am 04:31 Cloudy with Light Snow 34 1 32 0 93 93 NNE 3 6 30.33 1027 6 9.656064 0.001 0.001
4:53 am 04:53 Cloudy 34 1 32 0 93 93 NNE 3 6 30.33 1027 10 16.09344 0.001 0.001
5:53 am 05:53 Cloudy 36 2 32 0 87 87 Calm 30.33 1027 10 16.09344 0 0
6:53 am 06:53 Cloudy 36 2 32 0 87 87 Calm 30.36 1028 10 16.09344 0 0
7:27 am 07:27 Cloudy 36 2 34 1 93 93 NNE 5 7 30.36 1028 10 16.09344 0 0
7:53 am 07:53 Cloudy 36 2 32 0 87 87 NNE 6 9 30.39 1029 10 16.09344 0 0
8:53 am 08:53 Cloudy 37 3 34 1 87 87 NE 8 13 30.36 1028 10 16.09344 0 0
9:12 am 09:12 Cloudy 37 3 34 1 87 87 NNE 7 11 30.36 1028 10 16.09344 0 0
9:53 am 09:53 Cloudy 39 4 34 1 81 81 NNE 7 11 30.36 1028 10 16.09344 0 0
10:53 am 10:53 Cloudy 43 6 34 1 71 71 NNE 9 15 30.33 1027 10 16.09344 0 0
11:53 am 11:53 Cloudy 43 6 34 1 71 71 N 6 9 30.33 1027 10 16.09344 0 0
12:53 pm 12:53 Cloudy 45 7 34 1 66 66 Calm 30.3 1026 10 16.09344 0 0
1:53 pm 13:53 Cloudy 46 8 34 1 62 62 ENE 6 9 30.3 1026 10 16.09344 0 0
2:53 pm 14:53 Cloudy 46 8 34 1 62 62 Calm 30.3 1026 10 16.09344 0 0
3:20 pm 15:20 Cloudy 46 8 36 2 66 66 ENE 12 19 30.3 1026 10 16.09344 0 0
3:53 pm 15:53 Cloudy 46 8 34 1 62 62 N 3 6 30.3 1026 10 16.09344 0 0
4:53 pm 16:53 Cloudy 46 8 34 1 62 62 NE 8 13 30.3 1026 10 16.09344 0 0
5:53 pm 17:53 Cloudy 46 8 34 1 62 62 E 8 13 30.3 1026 10 16.09344 0 0
6:53 pm 18:53 Cloudy 46 8 34 1 62 62 E 7 11 30.27 1025 10 16.09344 0 0
7:53 pm 19:53 Cloudy 45 7 34 1 66 66 E 6 9 30.3 1026 10 16.09344 0 0
8:53 pm 20:53 Cloudy 45 7 36 2 71 71 E 7 11 30.3 1026 10 16.09344 0 0
9:53 pm 21:53 Mostly Cloudy 43 6 36 2 76 76 E 8 13 30.33 1027 10 16.09344 0 0
10:53 pm 22:53 Cloudy 41 5 36 2 81 81 ENE 6 9 30.33 1027 10 16.09344 0 0
11:53 pm 23:53 Cloudy 43 6 36 2 76 76 ESE 5 7 30.33 1027 10 16.09344 0 0

Powered by AerisWeather